Wetterdaten: Montag, 02.03.2015
Datum Zeit Auen-Temp. Temp. -10 cm Luftfeuchte Luftfeuchte Luftdruck Regen Wind Richtung Richtung Taupunkt Windchill Windben
02.03.2015 00:00 4,4 C 1,1 C 86 % 86 % 1012,1 hPa 0,0 l/m 2,7 km/h (1 Bft) S 180 2,3 C 4,1 C 4,8 km/h (1 Bft)
02.03.2015 00:05 4,5 C 1,1 C 87 % 87 % 1012,1 hPa 0,0 l/m 2,9 km/h (1 Bft) W-SW 247 2,5 C 4,2 C 3,9 km/h (1 Bft)
02.03.2015 00:10 4,5 C 1,1 C 87 % 87 % 1012,1 hPa 0,0 l/m 3,9 km/h (1 Bft) SW 225 2,5 C 3,7 C 5,6 km/h (1 Bft)
02.03.2015 00:15 4,7 C 1,1 C 87 % 87 % 1012,0 hPa 0,0 l/m 4,5 km/h (1 Bft) S 180 2,7 C 3,4 C 7,7 km/h (2 Bft)
02.03.2015 00:20 4,9 C 1,1 C 87 % 87 % 1012,0 hPa 0,0 l/m 5,5 km/h (1 Bft) W-NW 292 2,9 C 3,3 C 10,6 km/h (2 Bft)
02.03.2015 00:25 4,9 C 1,1 C 87 % 87 % 1012,0 hPa 0,0 l/m 6,0 km/h (2 Bft) S-SW 202 2,9 C 3,3 C 9,8 km/h (2 Bft)
02.03.2015 00:30 4,8 C 1,1 C 88 % 88 % 1012,0 hPa 0,0 l/m 6,0 km/h (2 Bft) S 180 3,0 C 3,3 C 11,4 km/h (2 Bft)
02.03.2015 00:35 4,8 C 1,1 C 88 % 88 % 1011,8 hPa 0,0 l/m 5,5 km/h (1 Bft) S 180 3,0 C 3,3 C 5,8 km/h (2 Bft)
02.03.2015 00:40 4,7 C 1,1 C 87 % 87 % 1011,8 hPa 0,0 l/m 4,3 km/h (1 Bft) SW 225 2,7 C 3,7 C 4,8 km/h (1 Bft)
02.03.2015 00:45 5,0 C 1,1 C 88 % 88 % 1011,8 hPa 0,0 l/m 4,5 km/h (1 Bft) W-SW 247 3,2 C 3,6 C 6,4 km/h (2 Bft)
02.03.2015 00:50 5,1 C 1,1 C 87 % 87 % 1011,8 hPa 0,0 l/m 5,6 km/h (1 Bft) N-NW 337 3,1 C 3,3 C 8,7 km/h (2 Bft)
02.03.2015 00:55 5,0 C 1,1 C 87 % 87 % 1012,1 hPa 0,0 l/m 5,8 km/h (2 Bft) SW 225 3,0 C 3,1 C 7,6 km/h (2 Bft)
02.03.2015 01:00 5,0 C 1,1 C 87 % 87 % 1012,1 hPa 0,0 l/m 5,1 km/h (1 Bft) NW 315 3,0 C 3,3 C 6,8 km/h (2 Bft)
02.03.2015 01:05 4,9 C 1,1 C 87 % 87 % 1012,1 hPa 0,0 l/m 5,3 km/h (1 Bft) W 270 2,9 C 3,1 C 9,3 km/h (2 Bft)
02.03.2015 01:10 4,8 C 1,1 C 86 % 86 % 1012,1 hPa 0,0 l/m 4,8 km/h (1 Bft) S 180 2,7 C 3,3 C 3,5 km/h (1 Bft)
02.03.2015 01:15 4,7 C 1,1 C 86 % 86 % 1011,9 hPa 0,0 l/m 4,5 km/h (1 Bft) SW 225 2,6 C 3,4 C 6,9 km/h (2 Bft)
02.03.2015 01:20 4,7 C 1,1 C 86 % 86 % 1011,9 hPa 0,0 l/m 4,2 km/h (1 Bft) SW 225 2,6 C 3,4 C 6,4 km/h (2 Bft)
02.03.2015 01:25 4,7 C 1,1 C 86 % 86 % 1011,9 hPa 0,0 l/m 4,3 km/h (1 Bft) W-SW 247 2,6 C 3,3 C 5,3 km/h (1 Bft)
02.03.2015 01:30 4,6 C 1,1 C 86 % 86 % 1011,9 hPa 0,0 l/m 4,0 km/h (1 Bft) S 180 2,5 C 3,5 C 5,6 km/h (1 Bft)
02.03.2015 01:35 4,8 C 1,1 C 86 % 86 % 1011,6 hPa 0,0 l/m 4,0 km/h (1 Bft) W-SW 247 2,7 C 3,5 C 5,8 km/h (2 Bft)
02.03.2015 01:40 4,5 C 1,1 C 86 % 86 % 1011,6 hPa 0,0 l/m 3,9 km/h (1 Bft) W-SW 247 2,4 C 3,6 C 3,2 km/h (1 Bft)
02.03.2015 01:45 4,2 C 1,1 C 86 % 86 % 1011,6 hPa 0,0 l/m 3,1 km/h (1 Bft) S-SW 202 2,1 C 3,9 C 3,7 km/h (1 Bft)
02.03.2015 01:50 4,5 C 1,1 C 86 % 86 % 1011,6 hPa 0,0 l/m 2,4 km/h (1 Bft) S-SW 202 2,4 C 4,0 C 6,0 km/h (2 Bft)
02.03.2015 01:55 4,5 C 1,1 C 86 % 86 % 1011,5 hPa 0,0 l/m 2,9 km/h (1 Bft) SW 225 2,4 C 4,0 C 3,9 km/h (1 Bft)
02.03.2015 02:00 4,5 C 1,1 C 86 % 86 % 1011,5 hPa 0,0 l/m 3,2 km/h (1 Bft) SW 225 2,4 C 3,9 C 4,8 km/h (1 Bft)
02.03.2015 02:05 4,4 C 1,1 C 87 % 87 % 1011,5 hPa 0,0 l/m 2,9 km/h (1 Bft) S 180 2,4 C 4,1 C 2,6 km/h (1 Bft)
02.03.2015 02:10 4,2 C 1,1 C 87 % 87 % 1011,5 hPa 0,0 l/m 2,3 km/h (1 Bft) W-SW 247 2,2 C 4,0 C 2,3 km/h (1 Bft)
02.03.2015 02:15 4,2 C 1,1 C 87 % 87 % 1010,9 hPa 0,0 l/m 2,1 km/h (1 Bft) S-SW 202 2,2 C 4,0 C 2,1 km/h (1 Bft)
02.03.2015 02:20 4,1 C 1,1 C 87 % 87 % 1010,9 hPa 0,0 l/m 1,8 km/h (1 Bft) S-SW 202 2,1 C 4,0 C 0,0 km/h (0 Bft)
02.03.2015 02:25 4,1 C 1,1 C 87 % 87 % 1010,9 hPa 0,0 l/m 1,0 km/h (0 Bft) S 180 2,1 C 4,0 C 2,6 km/h (1 Bft)
02.03.2015 02:30 4,0 C 1,1 C 87 % 87 % 1010,9 hPa 0,0 l/m 0,8 km/h (0 Bft) S-SO 157 2,0 C 4,0 C 2,1 km/h (1 Bft)
02.03.2015 02:35 4,0 C 1,1 C 87 % 87 % 1010,5 hPa 0,0 l/m 1,3 km/h (1 Bft) S-SO 157 2,0 C 4,0 C 2,4 km/h (1 Bft)
02.03.2015 02:40 4,1 C 1,1 C 88 % 88 % 1010,5 hPa 0,0 l/m 1,9 km/h (1 Bft) S 180 2,3 C 4,0 C 0,0 km/h (0 Bft)
02.03.2015 02:45 4,1 C 1,1 C 88 % 88 % 1010,5 hPa 0,0 l/m 2,4 km/h (1 Bft) S-SO 157 2,3 C 4,0 C 1,6 km/h (1 Bft)
02.03.2015 02:50 3,8 C 1,1 C 88 % 88 % 1010,5 hPa 0,0 l/m 2,4 km/h (1 Bft) S-SW 202 2,0 C 3,9 C 5,3 km/h (1 Bft)
02.03.2015 02:55 3,9 C 1,1 C 88 % 88 % 1010,3 hPa 0,0 l/m 2,7 km/h (1 Bft) SW 225 2,1 C 3,8 C 6,3 km/h (2 Bft)
02.03.2015 03:00 3,7 C 1,1 C 88 % 88 % 1010,3 hPa 0,0 l/m 2,6 km/h (1 Bft) S-SO 157 1,9 C 3,7 C 0,0 km/h (0 Bft)
02.03.2015 03:05 3,6 C 1,1 C 88 % 88 % 1010,3 hPa 0,0 l/m 1,6 km/h (1 Bft) SO 135 1,8 C 3,6 C 0,0 km/h (0 Bft)
02.03.2015 03:10 3,6 C 1,1 C 88 % 88 % 1010,3 hPa 0,0 l/m 0,5 km/h (0 Bft) S-SO 157 1,8 C 3,5 C 0,0 km/h (0 Bft)
02.03.2015 03:15 3,6 C 1,1 C 88 % 88 % 1009,7 hPa 0,0 l/m 0,8 km/h (0 Bft) S-SO 157 1,8 C 3,4 C 0,0 km/h (0 Bft)
02.03.2015 03:20 3,5 C 1,1 C 88 % 88 % 1009,7 hPa 0,0 l/m 0,5 km/h (0 Bft) O 90 1,7 C 3,4 C 0,0 km/h (0 Bft)
02.03.2015 03:25 3,4 C 1,1 C 88 % 88 % 1009,7 hPa 0,0 l/m 0,0 km/h (0 Bft) S 180 1,6 C 3,4 C 0,0 km/h (0 Bft)
02.03.2015 03:30 3,5 C 1,1 C 88 % 88 % 1009,7 hPa 0,0 l/m 1,4 km/h (1 Bft) W-SW 247 1,7 C 3,3 C 4,8 km/h (1 Bft)
02.03.2015 03:35 3,4 C 1,1 C 88 % 88 % 1009,5 hPa 0,0 l/m 2,3 km/h (1 Bft) SW 225 1,6 C 3,3 C 3,7 km/h (1 Bft)
02.03.2015 03:40 3,4 C 1,1 C 88 % 88 % 1009,5 hPa 0,0 l/m 1,9 km/h (1 Bft) S-SO 157 1,6 C 3,3 C 2,6 km/h (1 Bft)
02.03.2015 03:45 3,3 C 1,1 C 88 % 88 % 1009,5 hPa 0,0 l/m 1,3 km/h (1 Bft) S-SO 157 1,5 C 3,3 C 0,0 km/h (0 Bft)
02.03.2015 03:50 3,5 C 1,1 C 88 % 88 % 1009,5 hPa 0,0 l/m 1,3 km/h (1 Bft) SO 135 1,7 C 3,3 C 0,0 km/h (0 Bft)
02.03.2015 03:55 3,9 C 1,1 C 89 % 89 % 1009,1 hPa 0,0 l/m 2,1 km/h (1 Bft) S 180 2,3 C 3,4 C 5,0 km/h (1 Bft)
02.03.2015 04:00 4,5 C 1,1 C 89 % 89 % 1009,1 hPa 0,0 l/m 3,7 km/h (1 Bft) W-SW 247 2,8 C 3,4 C 6,9 km/h (2 Bft)
02.03.2015 04:05 4,7 C 1,1 C 89 % 89 % 1009,1 hPa 0,0 l/m 3,9 km/h (1 Bft) SW 225 3,0 C 3,4 C 2,9 km/h (1 Bft)
02.03.2015 04:10 5,2 C 1,1 C 89 % 89 % 1009,1 hPa 0,0 l/m 4,5 km/h (1 Bft) SW 225 3,5 C 3,6 C 15,4 km/h (3 Bft)
02.03.2015 04:15 5,4 C 1,1 C 89 % 89 % 1008,7 hPa 0,0 l/m 4,7 km/h (1 Bft) W-SW 247 3,7 C 3,8 C 8,2 km/h (2 Bft)
02.03.2015 04:20 5,9 C 1,1 C 88 % 88 % 1008,7 hPa 0,0 l/m 6,4 km/h (2 Bft) SW 225 4,1 C 3,8 C 9,5 km/h (2 Bft)
02.03.2015 04:25 5,9 C 1,1 C 88 % 88 % 1008,7 hPa 0,0 l/m 7,1 km/h (2 Bft) SW 225 4,1 C 3,1 C 6,8 km/h (2 Bft)
02.03.2015 04:30 5,8 C 1,1 C 87 % 87 % 1008,7 hPa 0,0 l/m 6,1 km/h (2 Bft) S 180 3,8 C 4,0 C 11,6 km/h (2 Bft)
02.03.2015 04:35 5,8 C 1,1 C 86 % 86 % 1008,8 hPa 0,0 l/m 5,8 km/h (2 Bft) W-NW 292 3,6 C 4,1 C 6,9 km/h (2 Bft)
02.03.2015 04:40 5,7 C 1,1 C 86 % 86 % 1008,8 hPa 0,0 l/m 6,6 km/h (2 Bft) W-SW 247 3,5 C 3,4 C 4,8 km/h (1 Bft)
02.03.2015 04:45 5,6 C 1,1 C 85 % 85 % 1008,8 hPa 0,0 l/m 6,6 km/h (2 Bft) SW 225 3,3 C 3,3 C 9,8 km/h (2 Bft)
02.03.2015 04:50 5,6 C 1,1 C 85 % 85 % 1008,8 hPa 0,0 l/m 6,3 km/h (2 Bft) S-SW 202 3,3 C 3,3 C 10,9 km/h (2 Bft)
02.03.2015 04:55 5,7 C 1,1 C 85 % 85 % 1008,7 hPa 0,0 l/m 7,4 km/h (2 Bft) SW 225 3,4 C 2,4 C 9,8 km/h (2 Bft)
02.03.2015 05:00 5,6 C 1,1 C 85 % 85 % 1008,7 hPa 0,0 l/m 8,0 km/h (2 Bft) W-SW 247 3,3 C 1,6 C 16,3 km/h (3 Bft)
02.03.2015 05:05 5,5 C 1,1 C 85 % 85 % 1008,7 hPa 0,0 l/m 7,4 km/h (2 Bft) S 180 3,2 C 2,4 C 7,9 km/h (2 Bft)
02.03.2015 05:10 5,6 C 1,1 C 85 % 85 % 1008,7 hPa 0,0 l/m 6,0 km/h (2 Bft) SW 225 3,3 C 3,4 C 6,8 km/h (2 Bft)
02.03.2015 05:15 5,7 C 1,1 C 85 % 85 % 1008,6 hPa 0,0 l/m 5,6 km/h (1 Bft) W-SW 247 3,4 C 3,6 C 7,4 km/h (2 Bft)
02.03.2015 05:20 5,9 C 1,1 C 85 % 85 % 1008,6 hPa 0,0 l/m 6,6 km/h (2 Bft) SW 225 3,6 C 3,3 C 9,7 km/h (2 Bft)
02.03.2015 05:25 5,9 C 1,1 C 85 % 85 % 1008,6 hPa 0,0 l/m 7,6 km/h (2 Bft) SW 225 3,6 C 2,2 C 8,5 km/h (2 Bft)
02.03.2015 05:30 5,8 C 1,1 C 85 % 85 % 1008,6 hPa 0,0 l/m 8,0 km/h (2 Bft) W-NW 292 3,5 C 1,7 C 17,5 km/h (3 Bft)
02.03.2015 05:35 5,6 C 1,1 C 84 % 84 % 1008,8 hPa 0,0 l/m 7,7 km/h (2 Bft) SW 225 3,1 C 2,0 C 8,5 km/h (2 Bft)
02.03.2015 05:40 5,6 C 1,1 C 84 % 84 % 1008,8 hPa 0,0 l/m 6,9 km/h (2 Bft) S 180 3,1 C 2,9 C 18,7 km/h (3 Bft)
02.03.2015 05:45 5,4 C 1,1 C 85 % 85 % 1008,8 hPa 0,0 l/m 6,1 km/h (2 Bft) S 180 3,1 C 3,7 C 5,1 km/h (1 Bft)
02.03.2015 05:50 5,5 C 1,1 C 85 % 85 % 1008,8 hPa 0,0 l/m 6,4 km/h (2 Bft) NW 315 3,2 C 3,6 C 12,4 km/h (3 Bft)
02.03.2015 05:55 5,5 C 1,1 C 85 % 85 % 1008,8 hPa 0,0 l/m 6,8 km/h (2 Bft) S 180 3,2 C 3,2 C 9,7 km/h (2 Bft)
02.03.2015 06:00 5,8 C 1,1 C 85 % 85 % 1008,8 hPa 0,0 l/m 7,4 km/h (2 Bft) SW 225 3,5 C 2,7 C 8,4 km/h (2 Bft)
02.03.2015 06:05 5,6 C 1,1 C 85 % 85 % 1008,8 hPa 0,0 l/m 7,1 km/h (2 Bft) SW 225 3,3 C 3,1 C 3,9 km/h (1 Bft)
02.03.2015 06:10 5,6 C 1,1 C 85 % 85 % 1008,8 hPa 0,0 l/m 6,3 km/h (2 Bft) S 180 3,3 C 3,9 C 9,8 km/h (2 Bft)
02.03.2015 06:15 5,5 C 1,1 C 85 % 85 % 1009,0 hPa 0,0 l/m 5,6 km/h (1 Bft) W 270 3,2 C 4,2 C 3,5 km/h (1 Bft)
02.03.2015 06:20 5,5 C 1,1 C 85 % 85 % 1009,0 hPa 0,0 l/m 5,1 km/h (1 Bft) SW 225 3,2 C 4,3 C 4,0 km/h (1 Bft)
02.03.2015 06:25 5,5 C 1,1 C 85 % 85 % 1009,0 hPa 0,0 l/m 4,8 km/h (1 Bft) W-SW 247 3,2 C 4,3 C 4,0 km/h (1 Bft)
02.03.2015 06:30 5,5 C 1,1 C 85 % 85 % 1009,0 hPa 0,0 l/m 5,0 km/h (1 Bft) S 180 3,2 C 4,1 C 6,8 km/h (2 Bft)
02.03.2015 06:35 5,4 C 1,1 C 85 % 85 % 1009,2 hPa 0,0 l/m 5,0 km/h (1 Bft) S 180 3,1 C 4,1 C 3,5 km/h (1 Bft)
02.03.2015 06:40 5,4 C 1,1 C 85 % 85 % 1009,2 hPa 0,0 l/m 4,8 km/h (1 Bft) S-SW 202 3,1 C 3,9 C 7,2 km/h (2 Bft)
02.03.2015 06:45 5,4 C 1,1 C 85 % 85 % 1009,2 hPa 0,0 l/m 5,0 km/h (1 Bft) S 180 3,1 C 4,1 C 7,9 km/h (2 Bft)
02.03.2015 06:50 5,4 C 1,1 C 85 % 85 % 1009,2 hPa 0,0 l/m 5,6 km/h (1 Bft) NW 315 3,1 C 3,8 C 5,1 km/h (1 Bft)
02.03.2015 06:55 5,2 C 1,1 C 85 % 85 % 1009,5 hPa 0,0 l/m 4,7 km/h (1 Bft) SW 225 2,9 C 4,2 C 4,8 km/h (1 Bft)
02.03.2015 07:00 5,3 C 1,1 C 85 % 85 % 1009,5 hPa 0,0 l/m 4,2 km/h (1 Bft) S-SO 157 3,0 C 4,2 C 3,9 km/h (1 Bft)
02.03.2015 07:05 5,3 C 1,1 C 85 % 85 % 1009,5 hPa 0,0 l/m 3,9 km/h (1 Bft) W-SW 247 3,0 C 4,3 C 5,1 km/h (1 Bft)
02.03.2015 07:10 5,3 C 1,1 C 85 % 85 % 1009,5 hPa 0,0 l/m 4,2 km/h (1 Bft) SW 225 3,0 C 4,1 C 7,6 km/h (2 Bft)
02.03.2015 07:15 5,2 C 1,1 C 85 % 85 % 1009,4 hPa 0,0 l/m 5,1 km/h (1 Bft) SW 225 2,9 C 3,7 C 5,0 km/h (1 Bft)
02.03.2015 07:20 5,0 C 1,1 C 85 % 85 % 1009,4 hPa 0,0 l/m 4,5 km/h (1 Bft) S 180 2,7 C 3,8 C 2,6 km/h (1 Bft)
02.03.2015 07:25 5,1 C 1,1 C 86 % 86 % 1009,4 hPa 0,0 l/m 4,0 km/h (1 Bft) S 180 3,0 C 4,1 C 7,4 km/h (2 Bft)
02.03.2015 07:30 5,1 C 1,1 C 86 % 86 % 1009,4 hPa 0,0 l/m 5,3 km/h (1 Bft) SW 225 3,0 C 3,5 C 6,9 km/h (2 Bft)
02.03.2015 07:35 4,9 C 1,1 C 86 % 86 % 1009,7 hPa 0,0 l/m 5,8 km/h (2 Bft) S 180 2,8 C 3,3 C 7,1 km/h (2 Bft)
02.03.2015 07:40 4,9 C 1,1 C 86 % 86 % 1009,7 hPa 0,0 l/m 5,1 km/h (1 Bft) W-SW 247 2,8 C 3,4 C 4,7 km/h (1 Bft)
02.03.2015 07:45 4,9 C 1,1 C 86 % 86 % 1009,7 hPa 0,0 l/m 5,1 km/h (1 Bft) S 180 2,8 C 3,4 C 8,4 km/h (2 Bft)
02.03.2015 07:50 4,9 C 1,1 C 86 % 86 % 1009,7 hPa 0,0 l/m 5,3 km/h (1 Bft) W-SW 247 2,8 C 3,4 C 5,5 km/h (1 Bft)
02.03.2015 07:55 4,9 C 1,1 C 86 % 86 % 1009,6 hPa 0,0 l/m 5,0 km/h (1 Bft) S 180 2,8 C 3,4 C 3,7 km/h (1 Bft)
02.03.2015 08:00 5,0 C 1,1 C 86 % 86 % 1009,6 hPa 0,0 l/m 4,8 km/h (1 Bft) S-SW 202 2,9 C 3,6 C 3,7 km/h (1 Bft)
02.03.2015 08:05 5,1 C 1,1 C 86 % 86 % 1009,6 hPa 0,0 l/m 5,6 km/h (1 Bft) S 180 3,0 C 3,3 C 8,2 km/h (2 Bft)
02.03.2015 08:10 5,1 C 1,1 C 86 % 86 % 1009,6 hPa 0,0 l/m 6,3 km/h (2 Bft) SW 225 3,0 C 3,2 C 7,7 km/h (2 Bft)
02.03.2015 08:15 5,3 C 1,1 C 86 % 86 % 1009,8 hPa 0,0 l/m 6,9 km/h (2 Bft) SW 225 3,2 C 2,4 C 8,4 km/h (2 Bft)
02.03.2015 08:20 5,3 C 1,1 C 85 % 85 % 1009,8 hPa 0,0 l/m 6,9 km/h (2 Bft) W 270 3,0 C 2,7 C 6,4 km/h (2 Bft)
02.03.2015 08:25 5,4 C 1,1 C 85 % 85 % 1009,8 hPa 0,0 l/m 6,4 km/h (2 Bft) S-SW 202 3,1 C 3,6 C 8,9 km/h (2 Bft)
02.03.2015 08:30 5,5 C 1,1 C 84 % 84 % 1009,8 hPa 0,0 l/m 6,6 km/h (2 Bft) SW 225 3,0 C 3,6 C 10,6 km/h (2 Bft)
02.03.2015 08:35 5,5 C 1,1 C 83 % 83 % 1009,6 hPa 0,0 l/m 7,1 km/h (2 Bft) SW 225 2,8 C 3,2 C 6,4 km/h (2 Bft)
02.03.2015 08:40 5,6 C 1,1 C 83 % 83 % 1009,6 hPa 0,0 l/m 6,3 km/h (2 Bft) S 180 2,9 C 4,2 C 5,5 km/h (1 Bft)
02.03.2015 08:45 5,5 C 1,1 C 82 % 82 % 1009,6 hPa 0,0 l/m 5,5 km/h (1 Bft) S 180 2,7 C 4,4 C 9,8 km/h (2 Bft)
02.03.2015 08:50 5,3 C 1,1 C 82 % 82 % 1009,6 hPa 0,0 l/m 4,7 km/h (1 Bft) SW 225 2,5 C 4,8 C 5,6 km/h (1 Bft)
02.03.2015 08:55 5,3 C 1,1 C 82 % 82 % 1009,7 hPa 0,0 l/m 4,3 km/h (1 Bft) SW 225 2,5 C 4,7 C 3,9 km/h (1 Bft)
02.03.2015 09:00 5,6 C 1,1 C 82 % 82 % 1009,7 hPa 0,0 l/m 4,2 km/h (1 Bft) SW 225 2,8 C 4,8 C 4,3 km/h (1 Bft)
02.03.2015 09:05 5,9 C 1,1 C 82 % 82 % 1009,7 hPa 0,0 l/m 4,5 km/h (1 Bft) SW 225 3,1 C 5,1 C 12,1 km/h (2 Bft)
02.03.2015 09:10 6,0 C 1,1 C 80 % 80 % 1009,7 hPa 0,0 l/m 5,0 km/h (1 Bft) W-SW 247 2,8 C 5,4 C 5,0 km/h (1 Bft)
02.03.2015 09:15 6,0 C 1,1 C 79 % 79 % 1010,0 hPa 0,0 l/m 5,5 km/h (1 Bft) S 180 2,6 C 5,3 C 6,9 km/h (2 Bft)
02.03.2015 09:20 6,1 C 1,1 C 79 % 79 % 1010,0 hPa 0,0 l/m 5,6 km/h (1 Bft) W-SW 247 2,7 C 5,7 C 10,6 km/h (2 Bft)
02.03.2015 09:25 6,1 C 1,1 C 78 % 78 % 1010,0 hPa 0,0 l/m 6,9 km/h (2 Bft) W-SW 247 2,6 C 4,9 C 7,7 km/h (2 Bft)
02.03.2015 09:30 6,1 C 1,1 C 77 % 77 % 1010,0 hPa 0,0 l/m 10,3 km/h (2 Bft) W-SW 247 2,4 C 1,1 C 23,8 km/h (4 Bft)
02.03.2015 09:35 6,1 C 1,1 C 77 % 77 % 1010,4 hPa 0,0 l/m 10,1 km/h (2 Bft) W 270 2,4 C 1,1 C 10,5 km/h (2 Bft)
02.03.2015 09:40 5,9 C 1,1 C 77 % 77 % 1010,4 hPa 0,0 l/m 8,4 km/h (2 Bft) W-SW 247 2,2 C 2,7 C 24,0 km/h (4 Bft)
02.03.2015 09:45 5,4 C 1,1 C 78 % 78 % 1010,4 hPa 0,0 l/m 8,9 km/h (2 Bft) SW 225 1,9 C 1,5 C 10,0 km/h (2 Bft)
02.03.2015 09:50 5,0 C 1,1 C 79 % 79 % 1010,4 hPa 0,0 l/m 8,7 km/h (2 Bft) W-SW 247 1,7 C 0,6 C 6,8 km/h (2 Bft)
02.03.2015 09:55 5,0 C 1,1 C 79 % 79 % 1010,9 hPa 0,0 l/m 7,2 km/h (2 Bft) W-SW 247 1,7 C 2,1 C 5,6 km/h (1 Bft)
02.03.2015 10:00 4,9 C 1,1 C 81 % 81 % 1010,9 hPa 0,0 l/m 5,6 km/h (1 Bft) S 180 1,9 C 3,3 C 7,6 km/h (2 Bft)
02.03.2015 10:05 4,7 C 1,1 C 81 % 81 % 1010,9 hPa 0,0 l/m 4,7 km/h (1 Bft) W-SW 247 1,7 C 3,5 C 5,1 km/h (1 Bft)
02.03.2015 10:10 4,5 C 1,1 C 82 % 82 % 1010,9 hPa 0,0 l/m 4,0 km/h (1 Bft) W-SW 247 1,7 C 3,6 C 3,9 km/h (1 Bft)
02.03.2015 10:15 4,3 C 1,1 C 83 % 83 % 1011,4 hPa 0,0 l/m 4,7 km/h (1 Bft) W 270 1,7 C 3,1 C 5,1 km/h (1 Bft)
02.03.2015 10:20 4,3 C 1,1 C 83 % 83 % 1011,4 hPa 0,0 l/m 8,0 km/h (2 Bft) S-SW 202 1,7 C 0,2 C 20,4 km/h (4 Bft)
02.03.2015 10:25 4,2 C 1,1 C 84 % 84 % 1011,4 hPa 0,0 l/m 10,8 km/h (2 Bft) S 180 1,7 C -3,1 C 17,7 km/h (3 Bft)
02.03.2015 10:30 4,1 C 1,1 C 85 % 85 % 1011,4 hPa 0,0 l/m 11,7 km/h (2 Bft) S-SW 202 1,8 C -4,4 C 25,9 km/h (4 Bft)
02.03.2015 10:35 4,1 C 1,1 C 86 % 86 % 1011,6 hPa 0,0 l/m 11,4 km/h (2 Bft) S 180 2,0 C -4,1 C 10,6 km/h (2 Bft)
02.03.2015 10:40 4,1 C 1,1 C 86 % 86 % 1011,6 hPa 0,0 l/m 11,7 km/h (2 Bft) W-SW 247 2,0 C -4,4 C 10,9 km/h (2 Bft)
02.03.2015 10:45 4,0 C 1,1 C 87 % 87 % 1011,6 hPa 0,0 l/m 10,6 km/h (2 Bft) W-SW 247 2,0 C -3,3 C 13,8 km/h (3 Bft)
02.03.2015 10:50 3,9 C 1,1 C 87 % 87 % 1011,6 hPa 0,0 l/m 8,7 km/h (2 Bft) SW 225 1,9 C -1,3 C 9,7 km/h (2 Bft)
02.03.2015 10:55 4,0 C 1,1 C 87 % 87 % 1011,4 hPa 0,0 l/m 8,5 km/h (2 Bft) W 270 2,0 C -1,0 C 6,8 km/h (2 Bft)
02.03.2015 11:00 3,9 C 1,1 C 88 % 88 % 1011,4 hPa 0,0 l/m 7,2 km/h (2 Bft) W 270 2,1 C 0,6 C 13,7 km/h (3 Bft)
02.03.2015 11:05 3,8 C 1,1 C 88 % 88 % 1011,4 hPa 0,0 l/m 6,6 km/h (2 Bft) W-NW 292 2,0 C 1,5 C 4,8 km/h (1 Bft)
02.03.2015 11:10 3,0 C 1,1 C 87 % 87 % 1011,4 hPa 0,0 l/m 8,0 km/h (2 Bft) NW 315 1,1 C -0,8 C 10,8 km/h (2 Bft)
02.03.2015 11:15 2,7 C 1,1 C 87 % 87 % 1012,1 hPa 0,0 l/m 8,5 km/h (2 Bft) W-SW 247 0,8 C -2,2 C 8,2 km/h (2 Bft)
02.03.2015 11:20 2,4 C 1,1 C 87 % 87 % 1012,1 hPa 0,0 l/m 10,3 km/h (2 Bft) W-SW 247 0,5 C -5,1 C 15,0 km/h (3 Bft)
02.03.2015 11:25 2,1 C 1,1 C 87 % 87 % 1012,1 hPa 0,0 l/m 10,0 km/h (2 Bft) NW 315 0,2 C -5,0 C 8,0 km/h (2 Bft)
02.03.2015 11:30 2,0 C 1,1 C 87 % 87 % 1012,1 hPa 0,0 l/m 8,4 km/h (2 Bft) SW 225 0,1 C -3,5 C 8,0 km/h (2 Bft)
02.03.2015 11:35 2,0 C 1,1 C 87 % 87 % 1012,2 hPa 0,0 l/m 7,6 km/h (2 Bft) W-SW 247 0,1 C -2,6 C 10,9 km/h (2 Bft)
02.03.2015 11:40 2,0 C 1,1 C 88 % 88 % 1012,2 hPa 0,0 l/m 6,1 km/h (2 Bft) SW 225 0,2 C -0,6 C 9,7 km/h (2 Bft)
02.03.2015 11:45 2,0 C 1,1 C 88 % 88 % 1012,2 hPa 0,0 l/m 5,3 km/h (1 Bft) SW 225 0,2 C -0,3 C 4,0 km/h (1 Bft)
02.03.2015 11:50 1,7 C 1,1 C 88 % 88 % 1012,2 hPa 0,0 l/m 5,8 km/h (2 Bft) W-SW 247 -0,1 C -0,6 C 9,7 km/h (2 Bft)
02.03.2015 11:55 1,6 C 1,0 C 88 % 88 % 1012,6 hPa 0,0 l/m 5,8 km/h (2 Bft) W-SW 247 -0,2 C -0,8 C 5,5 km/h (1 Bft)
02.03.2015 12:00 1,6 C 1,0 C 88 % 88 % 1012,6 hPa 0,0 l/m 5,5 km/h (1 Bft) W-SW 247 -0,2 C -0,7 C 5,8 km/h (2 Bft)
02.03.2015 12:05 1,6 C 1,0 C 88 % 88 % 1012,6 hPa 0,0 l/m 5,6 km/h (1 Bft) W 270 -0,2 C -0,7 C 5,8 km/h (2 Bft)
02.03.2015 12:10 1,4 C 1,0 C 88 % 88 % 1012,6 hPa 0,0 l/m 5,5 km/h (1 Bft) S 180 -0,4 C -1,0 C 6,3 km/h (2 Bft)
02.03.2015 12:15 1,2 C 1,0 C 88 % 88 % 1012,6 hPa 0,0 l/m 5,3 km/h (1 Bft) W-SW 247 -0,6 C -1,1 C 6,6 km/h (2 Bft)
02.03.2015 12:20 1,1 C 1,1 C 88 % 88 % 1012,6 hPa 0,0 l/m 5,1 km/h (1 Bft) W-SW 247 -0,7 C -1,2 C 7,2 km/h (2 Bft)
02.03.2015 12:25 1,0 C 1,2 C 88 % 88 % 1012,6 hPa 0,0 l/m 5,5 km/h (1 Bft) W-SW 247 -0,8 C -1,5 C 6,6 km/h (2 Bft)
02.03.2015 12:30 1,0 C 1,2 C 88 % 88 % 1012,6 hPa 0,0 l/m 5,3 km/h (1 Bft) W-SW 247 -0,8 C -1,4 C 3,9 km/h (1 Bft)
02.03.2015 12:35 1,1 C 1,2 C 89 % 89 % 1013,1 hPa 0,0 l/m 5,6 km/h (1 Bft) S 180 -0,5 C -1,6 C 5,8 km/h (2 Bft)
02.03.2015 12:40 0,9 C 1,2 C 89 % 89 % 1013,1 hPa 0,0 l/m 5,1 km/h (1 Bft) S 180 -0,7 C -1,4 C 4,8 km/h (1 Bft)
02.03.2015 12:45 1,0 C 1,2 C 89 % 89 % 1013,1 hPa 0,0 l/m 6,1 km/h (2 Bft) NW 315 -0,6 C -1,8 C 10,0 km/h (2 Bft)
02.03.2015 12:50 0,9 C 1,2 C 89 % 89 % 1013,1 hPa 0,0 l/m 6,3 km/h (2 Bft) S-SW 202 -0,7 C -1,9 C 5,5 km/h (1 Bft)
02.03.2015 12:55 1,0 C 1,2 C 89 % 89 % 1013,2 hPa 0,0 l/m 4,8 km/h (1 Bft) S 180 -0,6 C -1,3 C 5,1 km/h (1 Bft)
02.03.2015 13:00 1,0 C 1,2 C 89 % 89 % 1013,2 hPa 0,0 l/m 4,2 km/h (1 Bft) W-SW 247 -0,6 C -0,9 C 1,6 km/h (1 Bft)
02.03.2015 13:05 0,9 C 1,2 C 89 % 89 % 1013,2 hPa 0,0 l/m 4,2 km/h (1 Bft) NO 45 -0,7 C -0,9 C 3,9 km/h (1 Bft)
02.03.2015 13:10 1,0 C 1,2 C 89 % 89 % 1013,2 hPa 0,0 l/m 3,7 km/h (1 Bft) SW 225 -0,6 C -0,6 C 4,5 km/h (1 Bft)
02.03.2015 13:15 1,0 C 1,2 C 89 % 89 % 1013,5 hPa 0,0 l/m 3,7 km/h (1 Bft) SW 225 -0,6 C -0,6 C 4,7 km/h (1 Bft)
02.03.2015 13:20 1,0 C 1,2 C 89 % 89 % 1013,5 hPa 0,0 l/m 3,9 km/h (1 Bft) W-SW 247 -0,6 C -0,7 C 5,1 km/h (1 Bft)
02.03.2015 13:25 1,2 C 1,1 C 89 % 89 % 1013,5 hPa 0,0 l/m 3,2 km/h (1 Bft) SW 225 -0,4 C -0,2 C 2,7 km/h (1 Bft)
02.03.2015 13:30 1,0 C 1,1 C 89 % 89 % 1013,5 hPa 0,0 l/m 1,1 km/h (1 Bft) W 270 -0,6 C 0,4 C 0,0 km/h (0 Bft)
02.03.2015 13:35 1,0 C 1,2 C 89 % 89 % 1013,8 hPa 0,0 l/m 0,2 km/h (0 Bft) W-SW 247 -0,6 C 0,4 C 0,0 km/h (0 Bft)
02.03.2015 13:40 1,0 C 1,2 C 89 % 89 % 1013,8 hPa 0,0 l/m 0,0 km/h (0 Bft) W-SW 247 -0,6 C 0,4 C 0,0 km/h (0 Bft)
02.03.2015 13:45 1,1 C 1,2 C 89 % 89 % 1013,8 hPa 0,0 l/m 0,0 km/h (0 Bft) SW 225 -0,5 C 0,4 C 0,0 km/h (0 Bft)
02.03.2015 13:50 1,1 C 1,2 C 89 % 89 % 1013,8 hPa 0,0 l/m 0,0 km/h (0 Bft) W-SW 247 -0,5 C 0,4 C 0,0 km/h (0 Bft)
02.03.2015 13:55 1,4 C 1,1 C 89 % 89 % 1014,3 hPa 0,0 l/m 0,0 km/h (0 Bft) S-SW 202 -0,2 C 0,6 C 0,0 km/h (0 Bft)
02.03.2015 14:00 1,7 C 1,1 C 89 % 89 % 1014,3 hPa 0,0 l/m 0,8 km/h (0 Bft) W-SW 247 0,1 C 1,0 C 5,1 km/h (1 Bft)
02.03.2015 14:05 1,9 C 1,1 C 89 % 89 % 1014,3 hPa 0,0 l/m 2,7 km/h (1 Bft) SW 225 0,3 C 1,1 C 3,9 km/h (1 Bft)
02.03.2015 14:10 2,2 C 1,1 C 89 % 89 % 1014,3 hPa 0,0 l/m 5,1 km/h (1 Bft) N-NW 337 0,6 C 0,3 C 6,9 km/h (2 Bft)
02.03.2015 14:15 2,8 C 1,1 C 89 % 89 % 1013,8 hPa 0,0 l/m 4,7 km/h (1 Bft) S 180 1,2 C 1,1 C 4,0 km/h (1 Bft)
02.03.2015 14:20 2,1 C 1,1 C 89 % 89 % 1013,8 hPa 0,0 l/m 3,5 km/h (1 Bft) W-NW 292 0,5 C 2,1 C 2,3 km/h (1 Bft)
02.03.2015 14:25 2,1 C 1,0 C 89 % 89 % 1013,8 hPa 0,0 l/m 3,5 km/h (1 Bft) NW 315 0,5 C 1,9 C 4,8 km/h (1 Bft)
02.03.2015 14:30 2,7 C 1,0 C 89 % 89 % 1013,8 hPa 0,0 l/m 3,1 km/h (1 Bft) S-SW 202 1,1 C 2,5 C 3,7 km/h (1 Bft)
02.03.2015 14:35 3,2 C 1,1 C 89 % 89 % 1013,5 hPa 0,0 l/m 2,7 km/h (1 Bft) W-SW 247 1,6 C 3,3 C 4,8 km/h (1 Bft)
02.03.2015 14:40 3,3 C 1,1 C 88 % 88 % 1013,5 hPa 0,0 l/m 3,5 km/h (1 Bft) W-NW 292 1,5 C 4,1 C 5,3 km/h (1 Bft)
02.03.2015 14:45 3,5 C 1,1 C 88 % 88 % 1013,5 hPa 0,0 l/m 4,8 km/h (1 Bft) SW 225 1,7 C 3,8 C 5,0 km/h (1 Bft)
02.03.2015 14:50 3,4 C 1,1 C 87 % 87 % 1013,5 hPa 0,0 l/m 5,6 km/h (1 Bft) SW 225 1,4 C 3,8 C 7,6 km/h (2 Bft)
02.03.2015 14:55 3,0 C 1,1 C 87 % 87 % 1014,0 hPa 0,0 l/m 5,6 km/h (1 Bft) W-SW 247 1,1 C 3,6 C 9,5 km/h (2 Bft)
02.03.2015 15:00 2,7 C 1,0 C 87 % 87 % 1014,0 hPa 0,0 l/m 6,9 km/h (2 Bft) S-SW 202 0,8 C 1,6 C 8,0 km/h (2 Bft)
02.03.2015 15:05 2,6 C 1,0 C 87 % 87 % 1014,0 hPa 0,0 l/m 6,9 km/h (2 Bft) SW 225 0,7 C 1,1 C 5,5 km/h (1 Bft)
02.03.2015 15:10 2,4 C 1,0 C 87 % 87 % 1014,0 hPa 0,0 l/m 6,1 km/h (2 Bft) S-SW 202 0,5 C 1,1 C 6,0 km/h (2 Bft)
02.03.2015 15:15 2,2 C 1,0 C 87 % 87 % 1014,1 hPa 0,0 l/m 6,6 km/h (2 Bft) W 270 0,3 C 0,3 C 5,8 km/h (2 Bft)
02.03.2015 15:20 2,1 C 1,0 C 87 % 87 % 1014,1 hPa 0,0 l/m 4,8 km/h (1 Bft) S-SO 157 0,2 C 0,5 C 5,8 km/h (2 Bft)
02.03.2015 15:25 2,1 C 1,0 C 87 % 87 % 1014,1 hPa 0,0 l/m 4,0 km/h (1 Bft) SW 225 0,2 C 0,9 C 7,6 km/h (2 Bft)
02.03.2015 15:30 2,1 C 1,0 C 87 % 87 % 1014,1 hPa 0,0 l/m 5,5 km/h (1 Bft) W-SW 247 0,2 C 0,2 C 6,6 km/h (2 Bft)
02.03.2015 15:35 2,1 C 1,0 C 87 % 87 % 1014,2 hPa 0,0 l/m 6,3 km/h (2 Bft) S 180 0,2 C -0,3 C 9,7 km/h (2 Bft)
02.03.2015 15:40 2,4 C 1,0 C 88 % 88 % 1014,2 hPa 0,0 l/m 7,1 km/h (2 Bft) SW 225 0,6 C -1,1 C 9,3 km/h (2 Bft)
02.03.2015 15:45 2,4 C 1,0 C 87 % 87 % 1014,2 hPa 0,0 l/m 7,4 km/h (2 Bft) W-SW 247 0,5 C -1,4 C 6,8 km/h (2 Bft)
02.03.2015 15:50 2,7 C 1,0 C 88 % 88 % 1014,2 hPa 0,0 l/m 7,1 km/h (2 Bft) W-SW 247 0,9 C -0,7 C 6,6 km/h (2 Bft)
02.03.2015 15:55 2,6 C 1,0 C 87 % 87 % 1013,9 hPa 0,0 l/m 7,1 km/h (2 Bft) S 180 0,7 C -0,8 C 11,9 km/h (2 Bft)
02.03.2015 16:00 3,0 C 1,0 C 87 % 87 % 1013,9 hPa 0,0 l/m 9,3 km/h (2 Bft) W-NW 292 1,1 C -3,2 C 12,6 km/h (3 Bft)
02.03.2015 16:05 3,1 C 1,0 C 87 % 87 % 1013,9 hPa 0,0 l/m 9,8 km/h (2 Bft) S 180 1,2 C -3,3 C 8,7 km/h (2 Bft)
02.03.2015 16:10 3,1 C 1,0 C 87 % 87 % 1013,9 hPa 0,0 l/m 8,0 km/h (2 Bft) W-SW 247 1,2 C -1,0 C 11,6 km/h (2 Bft)
02.03.2015 16:15 3,1 C 1,0 C 87 % 87 % 1013,6 hPa 0,0 l/m 7,2 km/h (2 Bft) SW 225 1,2 C -0,0 C 5,1 km/h (1 Bft)
02.03.2015 16:20 3,3 C 1,0 C 87 % 87 % 1013,6 hPa 0,0 l/m 7,1 km/h (2 Bft) W-SW 247 1,3 C 0,6 C 10,5 km/h (2 Bft)
02.03.2015 16:25 3,5 C 1,0 C 87 % 87 % 1013,6 hPa 0,0 l/m 6,6 km/h (2 Bft) W-SW 247 1,5 C 1,5 C 7,1 km/h (2 Bft)
02.03.2015 16:30 3,2 C 1,0 C 86 % 86 % 1013,6 hPa 0,0 l/m 7,7 km/h (2 Bft) SW 225 1,1 C 0,4 C 8,7 km/h (2 Bft)
02.03.2015 16:35 2,9 C 1,0 C 86 % 86 % 1013,4 hPa 0,0 l/m 6,9 km/h (2 Bft) S 180 0,8 C 0,9 C 6,6 km/h (2 Bft)
02.03.2015 16:40 3,0 C 1,0 C 86 % 86 % 1013,4 hPa 0,0 l/m 6,3 km/h (2 Bft) S 180 0,9 C 1,1 C 9,2 km/h (2 Bft)
02.03.2015 16:45 3,1 C 1,0 C 86 % 86 % 1013,4 hPa 0,0 l/m 6,8 km/h (2 Bft) S 180 1,0 C 0,6 C 7,2 km/h (2 Bft)
02.03.2015 16:50 2,9 C 1,0 C 86 % 86 % 1013,4 hPa 0,0 l/m 6,9 km/h (2 Bft) W-SW 247 0,8 C 0,3 C 8,0 km/h (2 Bft)
02.03.2015 16:55 2,8 C 1,0 C 86 % 86 % 1014,4 hPa 0,0 l/m 7,6 km/h (2 Bft) W-NW 292 0,7 C -0,6 C 18,3 km/h (3 Bft)
02.03.2015 17:00 2,3 C 1,0 C 86 % 86 % 1014,4 hPa 0,0 l/m 10,8 km/h (2 Bft) W-SW 247 0,2 C -5,3 C 17,1 km/h (3 Bft)
02.03.2015 17:05 2,1 C 1,0 C 86 % 86 % 1014,4 hPa 0,0 l/m 11,3 km/h (2 Bft) W 270 0,0 C -6,3 C 13,7 km/h (3 Bft)
02.03.2015 17:10 2,1 C 1,0 C 87 % 87 % 1014,4 hPa 0,0 l/m 10,6 km/h (2 Bft) SW 225 0,2 C -6,0 C 11,3 km/h (2 Bft)
02.03.2015 17:15 2,0 C 1,0 C 87 % 87 % 1014,6 hPa 0,0 l/m 7,7 km/h (2 Bft) SW 225 0,1 C -2,5 C 4,0 km/h (1 Bft)
02.03.2015 17:20 2,0 C 1,0 C 87 % 87 % 1014,6 hPa 0,0 l/m 5,0 km/h (1 Bft) W-SW 247 0,1 C -0,2 C 5,3 km/h (1 Bft)
02.03.2015 17:25 2,0 C 1,0 C 88 % 88 % 1014,6 hPa 0,0 l/m 6,0 km/h (2 Bft) W 270 0,2 C -0,6 C 7,7 km/h (2 Bft)
02.03.2015 17:30 2,1 C 1,0 C 88 % 88 % 1014,6 hPa 0,0 l/m 8,9 km/h (2 Bft) W-SW 247 0,3 C -3,9 C 12,9 km/h (3 Bft)
02.03.2015 17:35 2,1 C 1,0 C 88 % 88 % 1015,4 hPa 0,0 l/m 10,6 km/h (2 Bft) W 270 0,3 C -6,1 C 21,1 km/h (4 Bft)
02.03.2015 17:40 2,1 C 1,0 C 88 % 88 % 1015,4 hPa 0,0 l/m 10,6 km/h (2 Bft) W-SW 247 0,3 C -6,2 C 9,0 km/h (2 Bft)
02.03.2015 17:45 2,0 C 1,0 C 88 % 88 % 1015,4 hPa 0,0 l/m 9,7 km/h (2 Bft) NW 315 0,2 C -5,2 C 13,7 km/h (3 Bft)
02.03.2015 17:50 2,0 C 1,0 C 88 % 88 % 1015,4 hPa 0,0 l/m 7,2 km/h (2 Bft) NW 315 0,2 C -2,1 C 10,5 km/h (2 Bft)
02.03.2015 17:55 1,9 C 1,0 C 88 % 88 % 1015,6 hPa 0,0 l/m 6,4 km/h (2 Bft) S 180 0,1 C -1,1 C 5,5 km/h (1 Bft)
02.03.2015 18:00 1,9 C 1,0 C 89 % 89 % 1015,6 hPa 0,0 l/m 5,3 km/h (1 Bft) SW 225 0,3 C -0,6 C 6,1 km/h (2 Bft)
02.03.2015 18:05 1,9 C 1,1 C 89 % 89 % 1015,6 hPa 0,0 l/m 5,5 km/h (1 Bft) S 180 0,3 C -0,7 C 6,3 km/h (2 Bft)
02.03.2015 18:10 2,0 C 1,0 C 89 % 89 % 1015,6 hPa 0,0 l/m 5,5 km/h (1 Bft) S 180 0,4 C -0,6 C 9,8 km/h (2 Bft)
02.03.2015 18:15 2,0 C 1,0 C 89 % 89 % 1015,6 hPa 0,0 l/m 6,3 km/h (2 Bft) S 180 0,4 C -0,7 C 9,7 km/h (2 Bft)
02.03.2015 18:20 1,7 C 1,0 C 89 % 89 % 1015,6 hPa 0,0 l/m 7,4 km/h (2 Bft) W-SW 247 0,1 C -2,4 C 15,6 km/h (3 Bft)
02.03.2015 18:25 1,5 C 1,0 C 89 % 89 % 1015,6 hPa 0,0 l/m 7,2 km/h (2 Bft) O 90 -0,1 C -2,2 C 7,9 km/h (2 Bft)
02.03.2015 18:30 1,3 C 1,1 C 89 % 89 % 1015,6 hPa 0,0 l/m 6,9 km/h (2 Bft) W-SW 247 -0,3 C -2,1 C 5,1 km/h (1 Bft)
02.03.2015 18:35 1,2 C 1,1 C 89 % 89 % 1016,2 hPa 0,0 l/m 6,6 km/h (2 Bft) SW 225 -0,4 C -1,9 C 5,8 km/h (2 Bft)
02.03.2015 18:40 1,3 C 1,1 C 89 % 89 % 1016,2 hPa 0,0 l/m 6,6 km/h (2 Bft) SW 225 -0,3 C -1,9 C 7,4 km/h (2 Bft)
02.03.2015 18:45 1,2 C 1,1 C 89 % 89 % 1016,2 hPa 0,0 l/m 6,9 km/h (2 Bft) SW 225 -0,4 C -2,3 C 6,4 km/h (2 Bft)
02.03.2015 18:50 1,1 C 1,1 C 89 % 89 % 1016,2 hPa 0,0 l/m 5,5 km/h (1 Bft) NW 315 -0,5 C -1,2 C 3,5 km/h (1 Bft)
02.03.2015 18:55 1,2 C 1,1 C 89 % 89 % 1016,8 hPa 0,0 l/m 5,0 km/h (1 Bft) S-SW 202 -0,4 C -1,2 C 3,9 km/h (1 Bft)
02.03.2015 19:00 1,2 C 1,1 C 89 % 89 % 1016,8 hPa 0,0 l/m 4,8 km/h (1 Bft) W-SW 247 -0,4 C -1,1 C 3,5 km/h (1 Bft)
02.03.2015 19:05 1,4 C 1,1 C 89 % 89 % 1016,8 hPa 0,0 l/m 4,8 km/h (1 Bft) S 180 -0,2 C -1,1 C 10,0 km/h (2 Bft)
02.03.2015 19:10 1,7 C 1,1 C 90 % 90 % 1016,8 hPa 0,0 l/m 6,6 km/h (2 Bft) W-SW 247 0,2 C -2,0 C 10,0 km/h (2 Bft)
02.03.2015 19:15 1,8 C 1,1 C 90 % 90 % 1016,8 hPa 0,0 l/m 7,6 km/h (2 Bft) SW 225 0,3 C -3,2 C 10,1 km/h (2 Bft)
02.03.2015 19:20 1,8 C 1,1 C 90 % 90 % 1016,8 hPa 0,0 l/m 7,7 km/h (2 Bft) SW 225 0,3 C -3,2 C 7,4 km/h (2 Bft)
02.03.2015 19:25 1,9 C 1,1 C 90 % 90 % 1016,8 hPa 0,0 l/m 7,9 km/h (2 Bft) S-SW 202 0,4 C -3,3 C 6,1 km/h (2 Bft)
02.03.2015 19:30 2,0 C 1,1 C 89 % 89 % 1016,8 hPa 0,0 l/m 8,2 km/h (2 Bft) SW 225 0,4 C -3,5 C 8,4 km/h (2 Bft)
02.03.2015 19:35 2,1 C 1,1 C 89 % 89 % 1016,7 hPa 0,0 l/m 8,7 km/h (2 Bft) S 180 0,5 C -4,0 C 20,9 km/h (4 Bft)
02.03.2015 19:40 2,1 C 1,0 C 89 % 89 % 1016,7 hPa 0,0 l/m 8,7 km/h (2 Bft) S-SW 202 0,5 C -3,8 C 4,8 km/h (1 Bft)
02.03.2015 19:45 1,9 C 1,0 C 89 % 89 % 1016,7 hPa 0,0 l/m 7,9 km/h (2 Bft) W-SW 247 0,3 C -3,0 C 8,4 km/h (2 Bft)
02.03.2015 19:50 1,8 C 1,1 C 89 % 89 % 1016,7 hPa 0,0 l/m 6,0 km/h (2 Bft) S 180 0,2 C -1,1 C 4,8 km/h (1 Bft)
02.03.2015 19:55 1,9 C 1,1 C 89 % 89 % 1016,5 hPa 0,0 l/m 7,7 km/h (2 Bft) S 180 0,3 C -3,2 C 13,4 km/h (3 Bft)
02.03.2015 20:00 1,8 C 1,1 C 89 % 89 % 1016,5 hPa 0,0 l/m 7,2 km/h (2 Bft) S-SW 202 0,2 C -2,5 C 6,4 km/h (2 Bft)
02.03.2015 20:05 1,9 C 1,1 C 89 % 89 % 1016,5 hPa 0,0 l/m 5,6 km/h (1 Bft) SW 225 0,3 C -0,9 C 4,0 km/h (1 Bft)
02.03.2015 20:10 1,8 C 1,1 C 89 % 89 % 1016,5 hPa 0,0 l/m 4,5 km/h (1 Bft) W 270 0,2 C -0,2 C 4,2 km/h (1 Bft)
02.03.2015 20:15 1,8 C 1,1 C 89 % 89 % 1017,1 hPa 0,0 l/m 5,1 km/h (1 Bft) S 180 0,2 C -0,5 C 10,5 km/h (2 Bft)
02.03.2015 20:20 1,7 C 1,1 C 89 % 89 % 1017,1 hPa 0,0 l/m 8,2 km/h (2 Bft) W 270 0,1 C -3,7 C 9,0 km/h (2 Bft)
02.03.2015 20:25 1,7 C 1,1 C 89 % 89 % 1017,1 hPa 0,0 l/m 8,7 km/h (2 Bft) S 180 0,1 C -4,6 C 9,7 km/h (2 Bft)
02.03.2015 20:30 1,9 C 1,1 C 89 % 89 % 1017,1 hPa 0,0 l/m 7,9 km/h (2 Bft) W-SW 247 0,3 C -3,4 C 9,2 km/h (2 Bft)
02.03.2015 20:35 1,9 C 1,0 C 89 % 89 % 1017,2 hPa 0,0 l/m 8,0 km/h (2 Bft) W-NW 292 0,3 C -3,5 C 6,3 km/h (2 Bft)
02.03.2015 20:40 2,0 C 1,0 C 88 % 88 % 1017,2 hPa 0,0 l/m 7,9 km/h (2 Bft) S 180 0,2 C -3,2 C 9,7 km/h (2 Bft)
02.03.2015 20:45 2,1 C 1,0 C 88 % 88 % 1017,2 hPa 0,0 l/m 7,4 km/h (2 Bft) W 270 0,3 C -2,5 C 8,7 km/h (2 Bft)
02.03.2015 20:50 2,0 C 1,0 C 88 % 88 % 1017,2 hPa 0,0 l/m 9,5 km/h (2 Bft) W 270 0,2 C -5,2 C 7,6 km/h (2 Bft)
02.03.2015 20:55 1,6 C 1,0 C 88 % 88 % 1018,8 hPa 0,0 l/m 11,6 km/h (2 Bft) W-SW 247 -0,2 C -7,6 C 14,8 km/h (3 Bft)
02.03.2015 21:00 0,5 C 1,2 C 87 % 87 % 1018,8 hPa 0,0 l/m 14,8 km/h (3 Bft) W 270 -1,4 C -11,8 C 28,3 km/h (4 Bft)
02.03.2015 21:05 0,6 C 1,2 C 88 % 88 % 1018,8 hPa 0,0 l/m 14,2 km/h (3 Bft) NW 315 -1,2 C -11,8 C 10,5 km/h (2 Bft)
02.03.2015 21:10 0,6 C 1,2 C 88 % 88 % 1018,8 hPa 0,0 l/m 9,7 km/h (2 Bft) O-SO 112 -1,2 C -7,1 C 7,4 km/h (2 Bft)
02.03.2015 21:15 0,6 C 1,2 C 88 % 88 % 1018,6 hPa 0,0 l/m 7,9 km/h (2 Bft) S 180 -1,2 C -4,8 C 7,2 km/h (2 Bft)
02.03.2015 21:20 0,6 C 1,2 C 89 % 89 % 1018,6 hPa 0,0 l/m 8,0 km/h (2 Bft) S 180 -1,0 C -5,0 C 10,5 km/h (2 Bft)
02.03.2015 21:25 0,6 C 1,2 C 89 % 89 % 1018,6 hPa 0,0 l/m 7,9 km/h (2 Bft) SW 225 -1,0 C -4,9 C 8,0 km/h (2 Bft)
02.03.2015 21:30 0,6 C 1,2 C 89 % 89 % 1018,6 hPa 0,0 l/m 6,9 km/h (2 Bft) W-SW 247 -1,0 C -3,3 C 13,8 km/h (3 Bft)
02.03.2015 21:35 0,6 C 1,1 C 89 % 89 % 1018,8 hPa 0,0 l/m 6,3 km/h (2 Bft) W-SW 247 -1,0 C -2,5 C 9,0 km/h (2 Bft)
02.03.2015 21:40 0,7 C 1,1 C 89 % 89 % 1018,8 hPa 0,0 l/m 7,1 km/h (2 Bft) W-SW 247 -0,9 C -3,5 C 10,6 km/h (2 Bft)
02.03.2015 21:45 0,7 C 1,1 C 89 % 89 % 1018,8 hPa 0,0 l/m 8,0 km/h (2 Bft) W-SW 247 -0,9 C -4,8 C 14,8 km/h (3 Bft)
02.03.2015 21:50 0,6 C 1,1 C 89 % 89 % 1018,8 hPa 0,0 l/m 9,3 km/h (2 Bft) W 270 -1,0 C -6,5 C 10,8 km/h (2 Bft)
02.03.2015 21:55 0,5 C 1,1 C 89 % 89 % 1019,5 hPa 0,0 l/m 8,9 km/h (2 Bft) W-SW 247 -1,1 C -5,9 C 10,9 km/h (2 Bft)
02.03.2015 22:00 0,5 C 1,1 C 89 % 89 % 1019,5 hPa 0,0 l/m 7,9 km/h (2 Bft) W-SW 247 -1,1 C -4,8 C 6,9 km/h (2 Bft)
02.03.2015 22:05 0,5 C 1,1 C 89 % 89 % 1019,5 hPa 0,0 l/m 8,0 km/h (2 Bft) W-SW 247 -1,1 C -4,9 C 8,7 km/h (2 Bft)
02.03.2015 22:10 0,4 C 1,1 C 89 % 89 % 1019,5 hPa 0,0 l/m 7,4 km/h (2 Bft) W-SW 247 -1,2 C -4,0 C 12,1 km/h (2 Bft)
02.03.2015 22:15 0,4 C 1,1 C 89 % 89 % 1020,1 hPa 0,0 l/m 7,2 km/h (2 Bft) N-NO 22 -1,2 C -3,7 C 8,7 km/h (2 Bft)
02.03.2015 22:20 0,4 C 1,1 C 89 % 89 % 1020,1 hPa 0,0 l/m 9,3 km/h (2 Bft) W-SW 247 -1,2 C -6,8 C 16,4 km/h (3 Bft)
02.03.2015 22:25 0,4 C 1,1 C 89 % 89 % 1020,1 hPa 0,0 l/m 9,2 km/h (2 Bft) W 270 -1,2 C -6,7 C 14,2 km/h (3 Bft)
02.03.2015 22:30 0,3 C 1,1 C 89 % 89 % 1020,1 hPa 0,0 l/m 10,3 km/h (2 Bft) SW 225 -1,3 C -8,1 C 10,8 km/h (2 Bft)
02.03.2015 22:35 0,3 C 1,1 C 89 % 89 % 1020,9 hPa 0,0 l/m 11,9 km/h (2 Bft) S 180 -1,3 C -10,1 C 19,3 km/h (3 Bft)
02.03.2015 22:40 -0,3 C 1,1 C 89 % 89 % 1020,9 hPa 0,0 l/m 13,2 km/h (3 Bft) W-SW 247 -1,9 C -11,8 C 33,6 km/h (5 Bft)
02.03.2015 22:45 -0,5 C 1,1 C 88 % 88 % 1020,9 hPa 0,0 l/m 12,6 km/h (3 Bft) SW 225 -2,2 C -11,5 C 11,3 km/h (2 Bft)
02.03.2015 22:50 -0,6 C 1,1 C 88 % 88 % 1020,9 hPa 0,0 l/m 9,0 km/h (2 Bft) W-SW 247 -2,3 C -7,7 C 11,1 km/h (2 Bft)
02.03.2015 22:55 -0,6 C 1,1 C 88 % 88 % 1021,2 hPa 0,0 l/m 9,0 km/h (2 Bft) S 180 -2,3 C -7,9 C 10,1 km/h (2 Bft)
02.03.2015 23:00 -0,6 C 1,1 C 88 % 88 % 1021,2 hPa 0,0 l/m 8,5 km/h (2 Bft) S 180 -2,3 C -7,3 C 7,2 km/h (2 Bft)
02.03.2015 23:05 -0,7 C 1,1 C 88 % 88 % 1021,2 hPa 0,0 l/m 7,6 km/h (2 Bft) W-SW 247 -2,4 C -6,1 C 8,7 km/h (2 Bft)
02.03.2015 23:10 -0,6 C 1,1 C 88 % 88 % 1021,2 hPa 0,0 l/m 7,4 km/h (2 Bft) W-SW 247 -2,3 C -6,0 C 7,2 km/h (2 Bft)
02.03.2015 23:15 -0,6 C 1,1 C 88 % 88 % 1021,9 hPa 0,0 l/m 8,2 km/h (2 Bft) S-SW 202 -2,3 C -7,0 C 10,5 km/h (2 Bft)
02.03.2015 23:20 -0,6 C 1,1 C 88 % 88 % 1021,9 hPa 0,0 l/m 7,2 km/h (2 Bft) S 180 -2,3 C -5,7 C 6,6 km/h (2 Bft)
02.03.2015 23:25 -0,5 C 1,1 C 88 % 88 % 1021,9 hPa 0,0 l/m 6,9 km/h (2 Bft) W-SW 247 -2,2 C -5,2 C 4,5 km/h (1 Bft)
02.03.2015 23:30 -0,4 C 1,1 C 88 % 88 % 1021,9 hPa 0,0 l/m 6,6 km/h (2 Bft) S 180 -2,1 C -4,5 C 7,4 km/h (2 Bft)
02.03.2015 23:35 -0,3 C 1,1 C 88 % 88 % 1022,2 hPa 0,0 l/m 6,3 km/h (2 Bft) S-SW 202 -2,0 C -4,0 C 10,5 km/h (2 Bft)
02.03.2015 23:40 -0,2 C 1,1 C 89 % 89 % 1022,2 hPa 0,0 l/m 6,6 km/h (2 Bft) S-SW 202 -1,8 C -4,1 C 8,9 km/h (2 Bft)
02.03.2015 23:45 -0,3 C 1,1 C 88 % 88 % 1022,2 hPa 0,0 l/m 6,4 km/h (2 Bft) W-SW 247 -2,0 C -3,7 C 10,0 km/h (2 Bft)
02.03.2015 23:50 -0,4 C 1,1 C 88 % 88 % 1022,2 hPa 0,0 l/m 6,6 km/h (2 Bft) S 180 -2,1 C -4,4 C 11,9 km/h (2 Bft)
02.03.2015 23:55 -0,4 C 1,1 C 88 % 88 % 1022,4 hPa 0,0 l/m 6,8 km/h (2 Bft) S 180 -2,1 C -4,7 C 7,7 km/h (2 Bft)
_ Min-Zeit 23:05 20:55 09:40 09:40 05:30 - 13:55 - - 23:05 22:40 13:55
Minimum _ -0,7 C 1,0 C 77 % 77 % 1008,6 hPa - 0,0 km/h (0 Bft) - - -2,4 C -11,8 C 0,0 km/h (0 Bft)
_ Max-Zeit 09:35 21:30 19:25 19:25 23:55 23:55 21:00 - - 04:25 09:20 22:40
Maximum _ 6,1 C 1,2 C 90 % 90 % 1022,4 hPa 0,0 l/m 14,8 km/h
W (3 Bft)
- - 4,1 C 5,7 C 33,6 km/h
W-SW (5 Bft)
Durchschnitt _ 3,1 C 1,1 C 87 % 87 % 1013,2 hPa #0,0 l/m 6,0 km/h (2 Bft) W-SW - 1,1 C 0,2 C 7,7 km/h (2 Bft)